Location: Newark
(41.0400°S, 62.7845°W)
Time: 19:15:40
(UTC+00:00)

STARLINK-3101 - Visible Passes

Search period start: 25 May 2022 00:00
Search period end: 04 June 2022 00:00
Orbit: 575 x 579 km, 70.0° (Epoch: 25 May)

Date Brightness Start Highest point End Pass type
(mag) Time Alt. Az. Time Alt. Az. Time Alt. Az.
25 May 5.0 21:58:24 10° SW 22:02:31 45° WNW 22:06:34 10° N visible
26 May 6.0 22:02:40 10° SW 22:06:23 29° WNW 22:10:04 10° NNW visible
27 May 7.1 10:27:17 10° NE 10:29:50 16° ENE 10:32:26 10° ESE visible
27 May 6.8 22:07:13 10° WSW 22:10:15 19° WNW 22:13:15 10° NNW visible
28 May 6.5 10:30:17 10° NNE 10:33:43 24° ENE 10:37:10 10° SE visible
28 May 7.3 22:12:23 10° WSW 22:14:07 12° W 22:15:49 10° NW visible
29 May 5.5 10:33:44 10° N 10:37:39 37° ENE 10:41:37 10° SE visible
30 May 4.5 10:37:29 10° N 10:41:40 59° ENE 10:45:54 10° SSE visible
31 May 3.7 10:41:30 10° NNW 10:45:46 88° WSW 10:50:05 10° SSE visible
01 Jun 7.1 09:10:10 10° NE 09:12:03 13° E 09:13:56 10° ESE visible
01 Jun 3.8 10:45:45 10° NW 10:49:56 56° WSW 10:54:11 10° SSE visible
02 Jun 6.5 09:12:58 10° NNE 09:16:03 20° ENE 09:19:09 10° ESE visible
02 Jun 4.3 10:50:14 10° NW 10:54:11 36° WSW 10:58:12 10° S visible
03 Jun 5.7 09:16:24 10° NNE 09:20:07 30° ENE 09:23:53 10° SE visible
03 Jun 4.8 10:55:00 10° WNW 10:58:32 25° SW 11:02:08 10° S visible
